�N����,����,�~����,�C��,���x,�C��,����,���ϕ���,�ő�u�ԕ���,�ő厞����,���˗�,�I�_���x,�n�����x,�ő啗���N��,DTYPE
"17/10/23","00:10",0.0,16.9,87.5,974.5,341.7,6.2,13.3,326.7,0.00,14.9,17.1,"00:08:02",1
"17/10/23","00:20",0.0,16.9,87.2,974.3,346.8,8.4,14.3,325.9,0.00,14.8,17.1,"00:14:14",1
"17/10/23","00:30",0.0,17.0,86.5,974.8,335.0,8.6,17.4,255.6,0.00,14.8,17.1,"00:24:00",1
"17/10/23","00:40",0.0,17.1,86.1,974.5,336.3,8.1,16.0,333.3,0.00,14.8,16.9,"00:37:26",1
"17/10/23","00:50",0.0,17.1,85.7,974.0,339.2,8.0,15.2,350.1,0.00,14.7,17.0,"00:45:16",1
"17/10/23","01:00",0.0,16.8,86.0,974.3,341.4,6.9,16.0,322.1,0.00,14.5,16.8,"00:58:00",1
"17/10/23","01:10",0.0,16.7,85.4,974.8,337.5,8.3,21.9,337.7,0.00,14.3,16.9,"01:04:18",1
"17/10/23","01:20",0.0,16.5,85.6,975.0,345.5,7.3,15.6,316.3,0.00,14.1,16.9,"01:12:56",1
"17/10/23","01:30",0.0,16.6,85.3,975.5,338.0,7.1,12.3,347.8,0.00,14.2,16.9,"01:22:32",1
"17/10/23","01:40",0.0,16.6,85.4,975.7,338.4,6.5,12.1,326.9,0.00,14.2,16.9,"01:38:44",1
"17/10/23","01:50",0.0,16.5,84.5,976.4,338.9,7.8,13.9,331.9,0.00,13.9,16.8,"01:40:22",1
"17/10/23","02:00",0.0,16.6,83.9,976.6,335.1,7.3,12.7,315.6,0.00,13.9,16.8,"01:54:24",1
"17/10/23","02:10",0.0,16.3,84.9,976.6,343.2,7.4,16.7,320.3,0.00,13.8,16.8,"02:07:58",1
"17/10/23","02:20",0.0,16.0,84.9,976.9,344.7,8.3,18.3,348.8,0.00,13.5,16.7,"02:19:50",1
"17/10/23","02:30",0.0,15.6,86.3,977.1,341.8,8.0,15.4,338.0,0.00,13.4,16.7,"02:22:00",1
"17/10/23","02:40",0.0,15.3,86.7,976.4,344.8,8.4,15.6,325.7,0.00,13.1,16.6,"02:33:54",1
"17/10/23","02:50",0.0,15.4,86.0,976.6,346.5,8.0,15.0,317.0,0.00,13.1,16.7,"02:48:20",1
"17/10/23","03:00",0.0,15.4,85.9,976.9,340.6,7.4,14.6,329.3,0.00,13.1,16.6,"02:59:58",1
"17/10/23","03:10",0.0,15.4,86.1,978.1,337.2,6.2,15.4,319.8,0.00,13.1,16.6,"03:03:38",1
"17/10/23","03:20",0.0,15.7,84.4,979.2,332.8,7.1,15.1,330.8,0.00,13.1,16.5,"03:13:56",1
"17/10/23","03:30",0.0,15.6,83.4,979.2,341.1,4.6,10.4,337.5,0.00,12.8,16.6,"03:29:06",1
"17/10/23","03:40",0.0,15.6,82.5,980.4,345.4,6.1,11.9,338.8,0.00,12.7,16.2,"03:35:52",1
"17/10/23","03:50",0.0,15.3,82.8,982.1,330.7,3.7,12.1,329.4,0.00,12.4,16.4,"03:41:54",1
"17/10/23","04:00",0.0,15.1,84.1,981.4,321.0,4.0,11.4,328.8,0.00,12.5,16.3,"03:54:32",1
"17/10/23","04:10",0.0,15.0,84.5,982.1,312.0,3.1,15.2,338.0,0.00,12.5,16.2,"04:05:20",1
"17/10/23","04:20",0.0,14.7,85.4,982.6,300.8,3.1,8.6,294.2,0.00,12.3,16.3,"04:19:44",1
"17/10/23","04:30",0.0,14.8,84.7,983.3,329.2,3.5,11.2,304.1,0.00,12.3,16.3,"04:20:24",1
"17/10/23","04:40",0.0,15.0,84.3,983.3,320.0,3.4,10.2,24.4,0.00,12.4,16.0,"04:37:30",1
"17/10/23","04:50",0.0,14.8,84.0,984.0,322.7,3.4,9.7,325.2,0.00,12.2,16.2,"04:41:04",1
"17/10/23","05:00",0.0,14.9,84.0,985.4,325.7,3.0,8.7,351.2,0.00,12.3,16.3,"04:57:20",1
"17/10/23","05:10",0.0,14.8,84.0,986.1,281.4,1.2,2.9,215.2,0.00,12.2,16.1,"05:01:12",1
"17/10/23","05:20",0.0,14.7,85.1,987.0,290.2,1.5,3.1,227.3,0.00,12.3,15.9,"05:16:06",1
"17/10/23","05:30",0.0,14.8,85.0,988.0,296.5,2.0,5.5,230.7,0.00,12.3,16.0,"05:24:00",1
"17/10/23","05:40",0.0,14.8,84.7,988.2,291.9,1.8,3.7,240.7,0.00,12.3,16.0,"05:34:56",1
"17/10/23","05:50",0.0,14.8,83.9,989.2,327.3,3.6,9.0,350.5,0.00,12.1,15.9,"05:47:20",1
"17/10/23","06:00",0.0,14.7,83.9,989.6,327.3,3.1,6.3,45.1,0.00,12.0,15.8,"05:58:40",1
"17/10/23","06:10",0.0,14.5,84.5,990.6,318.6,2.7,5.9,346.4,0.00,12.0,16.2,"06:06:02",1
"17/10/23","06:20",0.0,14.2,86.2,990.4,311.6,2.5,4.2,284.6,0.00,12.0,16.1,"06:10:32",1
"17/10/23","06:30",0.0,14.1,87.5,990.8,308.7,2.2,4.9,310.0,0.00,12.1,15.8,"06:25:08",1
"17/10/23","06:40",0.0,14.4,86.1,991.5,320.1,3.5,7.4,340.1,0.00,12.1,15.9,"06:34:56",1
"17/10/23","06:50",0.0,14.5,83.8,991.8,317.6,4.1,9.5,330.2,0.00,11.8,16.1,"06:47:22",1
"17/10/23","07:00",0.0,14.6,83.3,992.7,330.3,3.2,6.8,334.1,0.00,11.8,15.9,"06:52:00",1
"17/10/23","07:10",0.0,14.6,83.2,993.7,330.7,2.6,6.3,314.9,0.00,11.8,15.8,"07:05:52",1
"17/10/23","07:20",0.0,14.4,83.5,993.9,320.8,2.8,6.4,336.4,0.01,11.7,15.8,"07:17:52",1
"17/10/23","07:30",0.0,14.5,83.6,994.1,330.3,3.2,6.4,332.0,0.05,11.8,15.8,"07:20:40",1
"17/10/23","07:40",0.0,14.5,83.0,994.6,331.0,2.3,6.7,326.4,0.06,11.7,15.8,"07:37:20",1
"17/10/23","07:50",0.0,15.0,81.0,995.1,331.2,3.2,6.8,345.8,0.11,11.8,15.7,"07:49:12",1
"17/10/23","08:00",0.0,14.8,79.8,995.3,322.3,3.5,7.1,340.6,0.05,11.4,15.9,"07:51:20",1
"17/10/23","08:10",0.0,14.7,79.4,996.0,324.5,4.5,11.1,348.3,0.05,11.2,15.8,"08:07:56",1
"17/10/23","08:20",0.0,14.7,79.7,996.7,322.2,4.5,9.1,314.4,0.05,11.3,16.0,"08:12:50",1
"17/10/23","08:30",0.0,14.7,80.7,996.7,318.7,3.6,8.9,321.9,0.10,11.5,15.9,"08:28:10",1
"17/10/23","08:40",0.0,14.7,79.4,997.2,333.6,4.5,12.6,337.9,0.10,11.2,15.9,"08:32:40",1
"17/10/23","08:50",0.0,14.6,80.5,997.7,327.1,4.4,8.5,326.3,0.14,11.3,15.9,"08:45:20",1
"17/10/23","09:00",0.0,15.3,80.0,997.9,328.6,3.1,7.0,345.0,0.26,11.9,16.0,"08:52:08",1
"17/10/23","09:10",0.0,15.5,76.3,998.2,322.5,3.6,7.0,337.3,0.28,11.4,15.8,"09:08:48",1
"17/10/23","09:20",0.0,15.7,74.9,998.4,330.7,3.6,8.6,333.8,0.29,11.3,16.1,"09:18:48",1
"17/10/23","09:30",0.0,16.3,72.5,998.6,335.2,3.4,7.0,332.0,0.36,11.4,16.0,"09:26:48",1
"17/10/23","09:40",0.0,16.4,73.3,999.3,332.5,3.6,8.7,344.6,0.36,11.7,16.3,"09:38:08",1
"17/10/23","09:50",0.0,16.1,72.8,999.6,330.1,3.7,8.9,350.3,0.26,11.3,16.3,"09:49:44",1
"17/10/23","10:00",0.0,15.4,79.8,999.8,306.5,2.5,6.0,328.2,0.15,12.0,16.4,"09:53:28",1
"17/10/23","10:10",0.0,14.9,82.2,1000.0,302.3,2.1,4.2,342.3,0.15,11.9,16.2,"10:09:28",1
"17/10/23","10:20",0.0,15.0,84.8,1000.3,294.2,2.2,4.7,351.4,0.22,12.5,16.5,"10:16:00",1
"17/10/23","10:30",0.0,15.0,86.0,1000.5,297.2,1.7,2.9,253.8,0.19,12.7,16.4,"10:20:24",1
"17/10/23","10:40",0.0,14.8,86.1,1000.5,293.7,2.1,4.4,242.3,0.18,12.5,16.5,"10:31:44",1
"17/10/23","10:50",0.0,14.4,88.2,1001.0,301.4,2.1,3.9,255.5,0.12,12.5,16.4,"10:42:32",1
"17/10/23","11:00",0.0,14.4,88.2,1001.2,301.7,1.5,4.2,326.2,0.07,12.5,16.4,"10:53:04",1
"17/10/23","11:10",0.0,14.1,88.9,1001.0,293.2,1.7,3.2,355.3,0.07,12.3,16.6,"11:06:00",1
"17/10/23","11:20",0.0,14.0,88.9,1001.2,310.7,2.1,4.2,345.2,0.04,12.2,16.6,"11:15:44",1
"17/10/23","11:30",0.0,13.9,88.4,1001.5,311.7,2.7,7.0,240.8,0.06,12.1,16.6,"11:26:56",1
"17/10/23","11:40",0.0,14.1,88.5,1001.7,301.0,2.7,4.7,357.4,0.10,12.3,16.7,"11:30:40",1
"17/10/23","11:50",0.0,14.2,87.8,1001.7,297.7,2.3,4.9,321.4,0.12,12.2,16.7,"11:49:14",1
"17/10/23","12:00",0.0,15.1,83.8,1001.9,307.4,2.6,4.7,316.1,0.26,12.4,16.7,"11:57:04",1
"17/10/23","12:10",0.0,15.3,81.4,1002.2,310.6,2.8,6.8,307.3,0.19,12.2,16.6,"12:02:40",1
"17/10/23","12:20",0.0,15.6,80.3,1002.4,301.0,2.5,5.9,327.9,0.16,12.3,16.7,"12:15:28",1
"17/10/23","12:30",0.0,15.4,79.5,1002.4,284.9,2.5,5.2,283.3,0.16,11.9,16.8,"12:25:12",1
"17/10/23","12:40",0.0,15.1,79.9,1002.6,300.3,2.3,6.7,349.1,0.09,11.7,17.0,"12:31:04",1
"17/10/23","12:50",0.0,15.1,79.6,1003.4,309.1,1.7,4.0,339.3,0.12,11.6,16.7,"12:43:04",1
"17/10/23","13:00",0.0,15.2,77.8,1003.4,303.3,2.0,4.3,331.3,0.10,11.4,17.0,"12:50:48",1
"17/10/23","13:10",0.0,15.2,77.1,1003.4,314.2,2.3,7.1,338.2,0.11,11.3,17.0,"13:02:32",1
"17/10/23","13:20",0.0,15.4,75.6,1003.6,305.1,1.8,4.7,337.4,0.11,11.2,16.9,"13:19:20",1
"17/10/23","13:30",0.0,15.6,73.0,1003.6,324.6,2.8,7.7,328.2,0.12,10.8,16.9,"13:29:36",1
"17/10/23","13:40",0.0,15.9,73.0,1003.6,328.0,3.2,5.2,340.5,0.15,11.1,17.1,"13:35:20",1
"17/10/23","13:50",0.0,16.9,69.6,1004.1,325.8,2.5,4.5,327.8,0.29,11.4,17.0,"13:46:56",1
"17/10/23","14:00",0.0,16.8,68.2,1003.6,323.2,3.4,6.3,323.2,0.27,11.0,17.2,"13:54:00",1
"17/10/23","14:10",0.0,16.5,68.8,1003.4,331.9,4.0,6.8,324.7,0.22,10.8,16.8,"14:04:32",1
"17/10/23","14:20",0.0,16.9,66.8,1003.4,331.2,4.5,8.6,335.8,0.31,10.7,17.2,"14:18:56",1
"17/10/23","14:30",0.0,17.0,64.5,1003.6,324.5,3.6,8.8,328.8,0.27,10.3,17.3,"14:21:12",1
"17/10/23","14:40",0.0,16.6,64.1,1003.8,304.0,2.3,7.0,246.1,0.16,9.8,17.2,"14:32:00",1
"17/10/23","14:50",0.0,16.4,62.9,1004.1,307.1,2.5,6.2,352.6,0.12,9.4,17.0,"14:49:44",1
"17/10/23","15:00",0.0,16.0,61.7,1005.0,320.6,3.4,9.0,325.1,0.06,8.7,17.0,"14:53:04",1
"17/10/23","15:10",0.0,16.3,61.7,1004.5,309.2,2.5,6.0,337.0,0.16,9.0,17.1,"15:09:36",1
"17/10/23","15:20",0.0,16.6,61.4,1004.8,305.2,2.2,6.2,329.4,0.17,9.2,17.2,"15:13:52",1
"17/10/23","15:30",0.0,16.4,62.4,1005.0,309.0,2.3,4.5,319.5,0.15,9.2,16.9,"15:27:36",1
"17/10/23","15:40",0.0,16.5,64.8,1005.0,304.1,1.7,4.4,337.5,0.13,9.9,17.0,"15:32:00",1
"17/10/23","15:50",0.0,16.4,65.8,1005.2,282.3,1.8,3.9,325.1,0.10,10.0,16.9,"15:49:36",1
"17/10/23","16:00",0.0,16.0,64.0,1005.5,310.9,2.6,6.5,335.6,0.07,9.2,17.0,"15:56:40",1
"17/10/23","16:10",0.0,15.8,64.4,1005.7,320.0,2.0,4.9,343.8,0.05,9.1,17.2,"16:06:40",1
"17/10/23","16:20",0.0,15.6,65.8,1005.7,320.0,2.6,6.7,321.1,0.04,9.3,17.1,"16:14:24",1
"17/10/23","16:30",0.0,15.3,66.9,1006.2,303.3,1.7,4.3,334.6,0.02,9.2,17.0,"16:24:24",1
"17/10/23","16:40",0.0,15.0,67.8,1006.2,305.9,1.3,2.9,317.6,0.01,9.1,16.9,"16:36:00",1
"17/10/23","16:50",0.0,14.8,68.8,1006.4,317.8,2.3,6.3,324.1,0.00,9.2,16.9,"16:42:00",1
"17/10/23","17:00",0.0,14.5,69.4,1006.9,318.8,1.8,4.0,304.2,0.00,9.0,16.8,"16:53:36",1
"17/10/23","17:10",0.0,14.4,70.3,1006.9,318.5,1.8,4.2,320.1,0.00,9.1,16.7,"17:07:36",1
"17/10/23","17:20",0.0,14.0,71.3,1007.1,334.9,1.6,4.3,333.5,0.00,8.9,16.7,"17:11:20",1
"17/10/23","17:30",0.0,13.6,72.3,1007.4,320.2,1.1,2.5,337.0,0.00,8.8,16.6,"17:28:48",1
"17/10/23","17:40",0.0,13.6,72.8,1007.4,333.3,1.6,2.8,340.2,0.00,8.9,16.6,"17:31:28",1
"17/10/23","17:50",0.0,13.0,76.6,1007.6,325.4,1.6,2.6,334.2,0.00,9.0,16.4,"17:40:08",1
"17/10/23","18:00",0.0,12.1,80.0,1007.8,271.3,0.7,1.3,260.6,0.00,8.8,16.3,"17:50:46",1
"17/10/23","18:10",0.0,11.9,83.4,1008.6,324.9,1.5,2.6,330.0,0.00,9.2,16.5,"18:07:20",1
"17/10/23","18:20",0.0,11.6,85.5,1008.6,320.4,1.3,2.1,325.0,0.00,9.3,16.4,"18:12:36",1
"17/10/23","18:30",0.0,11.4,87.0,1008.6,327.9,1.3,2.2,317.7,0.00,9.4,16.2,"18:22:56",1
"17/10/23","18:40",0.0,11.3,88.3,1008.8,333.4,1.6,2.7,328.9,0.00,9.5,16.3,"18:34:38",1
"17/10/23","18:50",0.0,11.4,89.6,1009.0,329.7,1.3,2.0,344.7,0.00,9.8,16.1,"18:47:06",1
"17/10/23","19:00",0.0,11.7,90.3,1009.5,310.8,1.3,1.9,303.5,0.00,10.2,15.9,"18:52:12",1
"17/10/23","19:10",0.0,11.9,90.5,1009.5,347.3,1.0,1.6,317.6,0.00,10.4,16.1,"19:05:06",1
"17/10/23","19:20",0.0,12.2,89.4,1010.0,320.4,1.7,3.2,331.7,0.00,10.5,15.9,"19:14:46",1
"17/10/23","19:30",0.0,12.5,87.6,1010.2,300.0,1.5,2.6,306.4,0.00,10.5,16.1,"19:29:42",1
"17/10/23","19:40",0.0,12.6,86.7,1010.4,324.5,1.6,2.6,326.2,0.00,10.5,16.0,"19:30:18",1
"17/10/23","19:50",0.0,12.6,86.3,1010.2,327.7,1.5,2.8,338.7,0.00,10.4,16.1,"19:44:50",1
"17/10/23","20:00",0.0,12.5,86.0,1010.2,330.3,1.8,2.7,323.7,0.00,10.3,15.9,"19:57:18",1
"17/10/23","20:10",0.0,12.5,86.0,1010.4,316.5,2.0,3.4,330.9,0.00,10.3,15.9,"20:08:12",1
"17/10/23","20:20",0.0,12.5,86.4,1010.2,324.8,1.6,2.7,312.3,0.00,10.3,15.9,"20:10:56",1
"17/10/23","20:30",0.0,12.3,87.1,1010.2,323.7,2.0,2.8,340.0,0.00,10.3,15.8,"20:22:54",1
"17/10/23","20:40",0.0,12.3,87.6,1010.0,314.2,1.7,2.8,313.9,0.00,10.3,15.7,"20:36:14",1
"17/10/23","20:50",0.0,12.3,88.0,1010.7,320.0,1.2,2.0,331.1,0.00,10.4,15.9,"20:40:34",1
"17/10/23","21:00",0.0,12.2,88.4,1010.4,320.3,1.6,2.0,322.0,0.00,10.4,15.9,"20:57:06",1
"17/10/23","21:10",0.0,12.2,89.0,1010.7,306.0,1.2,1.7,328.9,0.00,10.5,15.8,"21:00:46",1
"17/10/23","21:20",0.0,12.1,88.6,1010.7,314.8,1.5,2.2,304.1,0.00,10.3,15.7,"21:13:52",1
"17/10/23","21:30",0.0,12.2,88.6,1011.2,313.6,1.2,1.8,312.8,0.00,10.4,16.1,"21:23:32",1
"17/10/23","21:40",0.0,12.2,88.5,1011.2,317.0,1.5,2.8,323.7,0.00,10.4,15.8,"21:33:38",1
"17/10/23","21:50",0.0,12.1,88.2,1011.4,303.7,1.1,1.8,307.6,0.00,10.2,15.7,"21:43:14",1
"17/10/23","22:00",0.0,12.1,87.9,1011.4,313.2,1.6,2.7,332.6,0.00,10.2,15.8,"21:56:06",1
"17/10/23","22:10",0.0,12.1,86.8,1011.6,324.8,2.2,3.3,323.7,0.00,10.0,15.6,"22:08:40",1
"17/10/23","22:20",0.0,12.3,85.8,1012.3,326.6,2.3,3.9,324.0,0.00,10.0,15.9,"22:15:46",1
"17/10/23","22:30",0.0,12.3,85.2,1011.9,325.8,2.6,3.5,344.0,0.00,9.9,15.8,"22:21:26",1
"17/10/23","22:40",0.0,12.2,85.8,1011.4,329.2,1.7,2.5,334.3,0.00,9.9,15.7,"22:31:38",1
"17/10/23","22:50",0.0,11.8,87.2,1011.4,312.8,1.8,2.8,320.1,0.00,9.8,15.7,"22:40:50",1
"17/10/23","23:00",0.0,11.7,88.5,1010.9,324.6,1.5,2.0,317.7,0.00,9.9,15.7,"22:56:18",1
"17/10/23","23:10",0.0,11.6,89.7,1011.2,314.9,1.6,2.2,334.6,0.00,10.0,15.8,"23:05:56",1
"17/10/23","23:20",0.0,11.5,90.3,1011.4,315.8,1.8,2.8,328.8,0.00,10.0,15.5,"23:16:50",1
"17/10/23","23:30",0.0,11.5,90.3,1011.6,325.0,1.8,3.1,333.5,0.00,10.0,15.6,"23:20:42",1
"17/10/23","23:40",0.0,11.3,90.4,1011.4,323.4,1.5,2.4,330.4,0.00,9.8,15.8,"23:34:02",1
"17/10/23","23:50",0.0,11.2,90.6,1011.6,327.4,1.6,3.6,328.6,0.00,9.8,15.7,"23:44:00",1
"17/10/23","24:00",0.0,11.1,90.7,1011.2,332.2,1.5,2.6,325.0,0.00,9.7,15.5,"23:58:06",1
